Terminal Aerodrome Forecast
Issued by NWS Nashville, TN

Home | Current Version | Previous Version | Text Only | Print | Product List | Glossary On
Versions: 1 2 3 4 5 6 7 8 9 10 11 12 13 14 15 16 17 18 19 20
000
FTUS44 KOHX 231100
TAFCSV
TAF
KCSV 231138Z 2312/2412 04004KT P6SM FEW025
     FM240600 VRB02KT 2SM BR FEW150=

USA.gov is the U.S. government's official web portal to all federal, state and local government web resources and services.